Home > Weather > Syracuse > Past weeks

Flag for USA Weather for the Past 2 Weeks in Syracuse, New York, USA

Now
58 °F

Mostly cloudy.


Feels Like: 56 °F
Forecast: 47 / 65 °F
Wind: 9 mph from East

Location: Syracuse Hancock International Airport

Current Time: May 6, 2016 at 5:20:20 PM

Latest Report: May 6, 2016 at 4:54 PM


Visibility: 10 mi

Pressure: 29.78 "Hg

Humidity: 72%

Dew Point: 49 °F

Location of SyracuseLocation

Historic Weather in Syracuse — Graph

°F

Syracuse Temperature Yesterday

Maximum temperature yesterday: 61 °F (at 1:54 PM)
Minimum temperature yesterday: 46 °F (at 1:54 AM)
Average temperature yesterday: 54 °F

High & Low Weather Summary for the Past Weeks

 TemperatureHumidityPressure
High76 °F (Apr 21, 3:54 PM)100% (Apr 26, 7:54 AM)30.20 "Hg (Apr 26, 7:54 AM)
Low29 °F (Apr 27, 4:54 AM)18% (Apr 21, 3:54 PM)29.65 "Hg (Apr 26, 7:54 AM)
Average49 °F69%29.94 "Hg
* Reported Apr 21 3:54 PM — May 6 3:54 PM, Syracuse, Weather by CustomWeather, © 2016

Note: Actual official high and low records may vary slightly from our data, if they occured in-between our weather recording intervals... More about our weather records

Advertising

Syracuse Weather History for the Previous 24 Hours

Scroll right to see more
 ConditionsComfort  
Time TempWeatherWind HumidityBarometerVisibility
3:54 PM
Fri, May 6
59 °FLight rain. Mostly cloudy.7 mph64%29.78 "Hg10 mi
2:54 PM61 °FLight rain. Mostly cloudy.6 mph52%29.76 "Hg10 mi
1:54 PM64 °FPartly sunny.9 mph38%29.76 "Hg10 mi
12:54 PM63 °FPartly sunny.8 mph40%29.77 "Hg10 mi
11:54 AM62 °FBroken clouds.6 mph46%29.78 "Hg10 mi
10:54 AM60 °FPartly sunny.7 mph49%29.80 "Hg10 mi
9:54 AM59 °FBroken clouds.No wind49%29.80 "Hg10 mi
8:54 AM55 °FPartly sunny.8 mph59%29.78 "Hg10 mi
7:54 AM51 °FBroken clouds.7 mph71%29.78 "Hg10 mi
6:54 AM47 °FPartly sunny.6 mph86%29.78 "Hg10 mi
5:54 AM46 °FPartly cloudy.3 mph86%29.78 "Hg10 mi
4:54 AM46 °FPartly cloudy.No wind86%29.77 "Hg10 mi
3:54 AM46 °FPassing clouds.7 mph86%29.75 "Hg10 mi
2:54 AM49 °FPassing clouds.7 mph80%29.74 "Hg10 mi
1:54 AM48 °FPartly cloudy.7 mph80%29.73 "Hg10 mi
12:54 AM54 °FOvercast.6 mph69%29.74 "Hg10 mi
11:54 PM
Thu, May 5
54 °FOvercast.6 mph69%29.73 "Hg10 mi
10:54 PM55 °FOvercast.No wind67%29.74 "Hg10 mi
9:54 PM55 °FPassing clouds.7 mph64%29.73 "Hg10 mi
8:54 PM57 °FOvercast.8 mph60%29.73 "Hg10 mi
7:54 PM58 °FOvercast.8 mph58%29.72 "Hg10 mi
6:54 PM59 °FOvercast.10 mph60%29.71 "Hg10 mi
5:54 PM59 °FOvercast.9 mph62%29.70 "Hg10 mi
Weather by CustomWeather, © 2016

See weather overviewHow to use our weather pages